• In Hungary
  • List of Countries
  • For 7 days
  • Water Temperature
  • Satellite Maps
  • Weather Map
  • News
  • Weather Widgets
  • user-avatar
    Login

    Hourly Weather Horodylets'

    Today, 20 October, Friday

    Time Temperature Precipitation Wind Pressure Humidity
    00:00 +10°C° 0 mm 2 mps 747 mmHg 90%
    01:00 +10°C° 0 mm 2 mps 747 mmHg 91%
    02:00 +10°C° 0 mm 2 mps 747 mmHg 92%
    03:00 +9°C° 0 mm 2 mps 747 mmHg 93%
    04:00 +9°C° 0 mm 2 mps 747 mmHg 94%
    05:00 +9°C° 0 mm 2 mps 747 mmHg 95%
    06:00 +9°C° 0 mm 2 mps 748 mmHg 95%
    07:00 +9°C° 0 mm 2 mps 748 mmHg 94%
    08:00 +9°C° 0 mm 2 mps 748 mmHg 94%
    09:00 +12°C° 0 mm 2 mps 748 mmHg 89%
    10:00 +13°C° 0 mm 2 mps 749 mmHg 83%
    11:00 +15°C° 0 mm 2 mps 749 mmHg 78%
    12:00 +16°C° 0 mm 2 mps 749 mmHg 75%
    13:00 +16°C° 0 mm 2 mps 749 mmHg 73%
    14:00 +17°C° 0 mm 2 mps 749 mmHg 70%
    15:00 +17°C° 0 mm 2 mps 749 mmHg 73%
    16:00 +16°C° 0 mm 2 mps 749 mmHg 76%
    17:00 +15°C° 0 mm 2 mps 748 mmHg 79%
    18:00 +14°C° 0 mm 2 mps 749 mmHg 80%
    19:00 +14°C° 0 mm 2 mps 749 mmHg 82%
    20:00 +13°C° 0 mm 2 mps 749 mmHg 84%
    21:00 +13°C° 0 mm 2 mps 749 mmHg 85%
    22:00 +12°C° 0 mm 2 mps 749 mmHg 86%
    23:00 +12°C° 0 mm 2 mps 749 mmHg 87%

    Tomorrow, 21 October, Saturday

    Time Temperature Precipitation Wind Pressure Humidity
    00:00 +12°C° 0 mm 2 mps 749 mmHg 88%
    01:00 +10°C° 0 mm 2 mps 749 mmHg 89%
    02:00 +10°C° 0 mm 2 mps 749 mmHg 89%
    03:00 +10°C° 0 mm 2 mps 749 mmHg 89%
    04:00 +10°C° 0 mm 2 mps 748 mmHg 89%
    05:00 +10°C° 0 mm 2 mps 748 mmHg 89%
    06:00 +10°C° 0 mm 2 mps 748 mmHg 89%
    07:00 +10°C° 0 mm 2 mps 748 mmHg 89%
    08:00 +10°C° 0 mm 2 mps 748 mmHg 89%
    09:00 +12°C° 0 mm 2 mps 748 mmHg 86%
    10:00 +12°C° 0 mm 3 mps 748 mmHg 82%
    11:00 +13°C° 0 mm 3 mps 748 mmHg 79%
    12:00 +14°C° 0 mm 2 mps 748 mmHg 78%
    13:00 +15°C° 0 mm 2 mps 747 mmHg 76%
    14:00 +15°C° 0 mm 2 mps 747 mmHg 74%
    15:00 +15°C° 0.1 mm 2 mps 747 mmHg 77%
    16:00 +14°C° 0.1 mm 1 mps 746 mmHg 80%
    17:00 +14°C° 0.1 mm 1 mps 746 mmHg 83%
    18:00 +13°C° 0.4 mm 1 mps 746 mmHg 85%
    19:00 +13°C° 0.4 mm 1 mps 746 mmHg 87%
    20:00 +12°C° 0.4 mm 1 mps 747 mmHg 89%
    21:00 +12°C° 0.3 mm 1 mps 747 mmHg 90%
    22:00 +12°C° 0.3 mm 2 mps 747 mmHg 90%
    23:00 +10°C° 0.3 mm 2 mps 747 mmHg 91%

    Day after tomorrow, 22 October, Sunday

    Time Temperature Precipitation Wind Pressure Humidity
    00:00 +10°C° 0 mm 2 mps 747 mmHg 91%
    01:00 +9°C° 0 mm 2 mps 747 mmHg 92%
    02:00 +9°C° 0 mm 2 mps 747 mmHg 92%
    03:00 +8°C° 0 mm 2 mps 747 mmHg 92%
    04:00 +7°C° 0 mm 2 mps 747 mmHg 92%
    05:00 +7°C° 0 mm 2 mps 747 mmHg 92%
    06:00 +7°C° 0 mm 2 mps 747 mmHg 91%
    07:00 +7°C° 0 mm 2 mps 747 mmHg 90%
    08:00 +7°C° 0 mm 3 mps 747 mmHg 89%
    09:00 +8°C° 0 mm 3 mps 748 mmHg 86%
    10:00 +9°C° 0 mm 3 mps 748 mmHg 83%
    11:00 +10°C° 0 mm 3 mps 748 mmHg 80%
    12:00 +11°C° 0 mm 3 mps 747 mmHg 79%
    13:00 +11°C° 0 mm 3 mps 747 mmHg 77%
    14:00 +12°C° 0 mm 3 mps 747 mmHg 76%
    15:00 +11°C° 0 mm 3 mps 747 mmHg 77%
    16:00 +12°C° 0 mm 2 mps 747 mmHg 79%
    17:00 +12°C° 0 mm 2 mps 747 mmHg 80%
    18:00 +11°C° 0 mm 3 mps 747 mmHg 80%
    19:00 +10°C° 0 mm 3 mps 747 mmHg 81%
    20:00 +10°C° 0 mm 3 mps 747 mmHg 81%
    21:00 +10°C° 0 mm 3 mps 747 mmHg 82%
    22:00 +9°C° 0 mm 3 mps 747 mmHg 84%
    23:00 +9°C° 0 mm 3 mps 747 mmHg 85%

    23 October, Monday

    Time Temperature Precipitation Wind Pressure Humidity
    00:00 +8°C° 0 mm 3 mps 746 mmHg 85%
    01:00 +8°C° 0 mm 3 mps 746 mmHg 86%
    02:00 +7°C° 0 mm 3 mps 746 mmHg 87%
    03:00 +6°C° 0 mm 4 mps 746 mmHg 87%
    04:00 +6°C° 0 mm 4 mps 746 mmHg 87%
    05:00 +5°C° 0 mm 4 mps 745 mmHg 87%
    06:00 +6°C° 0 mm 4 mps 745 mmHg 85%
    07:00 +6°C° 0 mm 4 mps 745 mmHg 82%
    08:00 +6°C° 0 mm 4 mps 745 mmHg 80%
    09:00 +7°C° 0 mm 5 mps 746 mmHg 77%
    10:00 +8°C° 0 mm 5 mps 746 mmHg 74%
    11:00 +9°C° 0 mm 5 mps 746 mmHg 71%
    12:00 +10°C° 0 mm 5 mps 746 mmHg 71%
    13:00 +10°C° 0 mm 5 mps 746 mmHg 70%
    14:00 +11°C° 0 mm 4 mps 746 mmHg 70%
    15:00 +10°C° 0 mm 5 mps 746 mmHg 70%
    16:00 +9°C° 0 mm 5 mps 746 mmHg 70%
    17:00 +9°C° 0 mm 5 mps 746 mmHg 71%
    18:00 +9°C° 0 mm 5 mps 746 mmHg 73%
    19:00 +8°C° 0 mm 4 mps 747 mmHg 75%
    20:00 +8°C° 0 mm 4 mps 747 mmHg 78%
    21:00 +7°C° 0 mm 4 mps 747 mmHg 77%
    22:00 +7°C° 0 mm 4 mps 748 mmHg 77%
    23:00 +7°C° 0 mm 4 mps 748 mmHg 76%

    24 October, Tuesday

    Time Temperature Precipitation Wind Pressure Humidity
    00:00 +7°C° 0.2 mm 4 mps 748 mmHg 76%
    01:00 +7°C° 0.2 mm 4 mps 748 mmHg 76%
    02:00 +7°C° 0.2 mm 4 mps 748 mmHg 75%
    03:00 +7°C° 0.4 mm 4 mps 749 mmHg 77%
    04:00 +7°C° 0.4 mm 4 mps 749 mmHg 79%
    05:00 +6°C° 0.4 mm 4 mps 749 mmHg 80%
    06:00 +6°C° 0.7 mm 4 mps 749 mmHg 81%
    07:00 +6°C° 0.7 mm 4 mps 750 mmHg 83%
    08:00 +6°C° 0.7 mm 4 mps 750 mmHg 84%
    09:00 +6°C° 0.7 mm 4 mps 750 mmHg 83%
    10:00 +6°C° 0.7 mm 5 mps 751 mmHg 81%
    11:00 +6°C° 0.7 mm 5 mps 751 mmHg 80%
    12:00 +6°C° 0.5 mm 5 mps 751 mmHg 79%
    13:00 +6°C° 0.5 mm 4 mps 751 mmHg 77%
    14:00 +7°C° 0.5 mm 4 mps 751 mmHg 76%
    15:00 +6°C° 0.6 mm 4 mps 751 mmHg 76%
    16:00 +6°C° 0.6 mm 4 mps 751 mmHg 77%
    17:00 +6°C° 0.6 mm 4 mps 752 mmHg 78%
    18:00 +6°C° 0.5 mm 4 mps 752 mmHg 77%
    19:00 +6°C° 0.5 mm 5 mps 753 mmHg 77%
    20:00 +6°C° 0.5 mm 5 mps 753 mmHg 77%
    21:00 +5°C° 0.3 mm 5 mps 754 mmHg 75%
    22:00 +5°C° 0.3 mm 5 mps 754 mmHg 74%
    23:00 +5°C° 0.3 mm 5 mps 755 mmHg 73%

    25 October, Wednesday

    Time Temperature Precipitation Wind Pressure Humidity
    00:00 +5°C° 0.1 mm 5 mps 755 mmHg 72%
    01:00 +3°C° 0.1 mm 5 mps 756 mmHg 71%
    02:00 +3°C° 0.1 mm 5 mps 756 mmHg 70%
    03:00 +3°C° 0.1 mm 5 mps 757 mmHg 70%
    04:00 +3°C° 0.1 mm 5 mps 757 mmHg 69%
    05:00 +3°C° 0.1 mm 4 mps 757 mmHg 69%
    06:00 +2°C° 0 mm 5 mps 758 mmHg 69%
    07:00 +2°C° 0 mm 5 mps 758 mmHg 69%
    08:00 +2°C° 0 mm 5 mps 759 mmHg 69%
    09:00 +2°C° 0 mm 5 mps 759 mmHg 66%
    10:00 +3°C° 0 mm 5 mps 760 mmHg 63%
    11:00 +5°C° 0 mm 5 mps 760 mmHg 60%
    12:00 +5°C° 0 mm 5 mps 760 mmHg 57%
    13:00 +6°C° 0 mm 5 mps 760 mmHg 54%
    14:00 +6°C° 0 mm 5 mps 760 mmHg 52%
    15:00 +6°C° 0 mm 4 mps 760 mmHg 55%
    16:00 +5°C° 0 mm 4 mps 761 mmHg 58%
    17:00 +4°C° 0 mm 3 mps 761 mmHg 62%
    18:00 +3°C° 0 mm 3 mps 761 mmHg 63%
    19:00 +3°C° 0 mm 3 mps 762 mmHg 65%
    20:00 +1°C° 0 mm 4 mps 762 mmHg 66%
    21:00 0°C° 0 mm 4 mps 762 mmHg 67%
    22:00 0°C° 0 mm 4 mps 762 mmHg 69%
    23:00 -1°C° 0 mm 4 mps 763 mmHg 70%
    Show more